User: anonymous   Login
Location: Unspecified
(0.0000°N, 0.0000°E)
Time: 06:46:37
(UTC+00:00)
Language:

STARLINK-5217 - Orbit

View from above orbital plane
View from above orbital plane
View from above satellite
View from above satellite

Ground track
Ground track

The orbit is defined by the following mean orbital elements,

1 54098U          26145.55830715 +.00000000 +00000-0 +34952-4 0 00008
2 54098  53.2122 349.3786 0001274  90.8622 269.2516 15.08837987    01
Epoch (UTC): 25 May 2026 13:23:57
Eccentricity: 0.0001274
inclination: 53.2122°
perigee height: 539 km
apogee height: 541 km
right ascension of ascending node: 349.3786°
argument of perigee: 90.8622°
revolutions per day: 15.08837987
mean anomaly at epoch: 269.2516°

The dashed part of the orbit path shows where the satellite is in the earth's shadow,  

DLR